User: anonymous   Login
Location: Caltech
(34.1382°N, 118.1253°W)
Time: 15:16:04
(UTC-08:00)
Language:

Cosmos 1025 Rocket - Orbit

View from above orbital plane
View from above orbital plane
View from above satellite
View from above satellite

Ground track
Ground track

The orbit data is extracted from the following two-line orbital elements,

1 10974U 78067B   17023.91253730 +.00000087 +00000-0 +68911-5 0  9997
2 10974 082.4842 305.8333 0018975 100.5395 259.7961 14.87208704065000
Epoch (UTC): 23 January 2017 21:54:03
Eccentricity: 0.0018975
inclination: 82.4842°
perigee height: 593 km
apogee height: 620 km
right ascension of ascending node: 305.8333°
argument of perigee: 100.5395°
revolutions per day: 14.87208704
mean anomaly at epoch: 259.7961°
orbit number at epoch: 6500

The dashed part of the orbit path shows where the satellite is in the earth's shadow,  

DLR